Location: Unspecified
(0.0000°N, 0.0000°E)
Time: 23:29:29
(UTC+00:00)

X-37B - Pass Details

Date: 23 January 2022
Orbit: 334 x 337 km, 45.0° (Epoch: 11 January)

Event Time Altitude Azimuth Distance (km) Brightness Sun altitude
Exits shadow 04:45:45 33° 49° (NE) 581 1.7 -20.2°
Drops below altitude 10° 04:48:20 10° 115° (ESE) 1,266 4.4 -19.6°
Sets 04:50:26 0° 125° (SE) 2,104 5.8 -19.1°
